Home > Products > Valid Products > MTR

000
SAUS42 KCHS 231757
MTRNBC
METAR KNBC 231756Z 27007KT 10SM CLR 19/07 A3004 RMK AO2 SLP171 WIND
DATA ESTIMATED T01940067 10200 20094 58026 $





000
SAUS42 KCHS 231657
MTRNBC
METAR KNBC 231656Z 10SM CLR 18/07 A3008 RMK AO2 SLP185 T01830067 $





000
SAUS42 KCHS 231657
MTRNBC
METAR KNBC 231656Z 10SM CLR 18/07 A3008 RMK AO2 SLP185 T01830067 $





000
SAUS42 KCHS 231557
MTRNBC
METAR KNBC 231556Z VRB05KT 10SM CLR 18/07 A3009 RMK AO2 SLP191
T01780072 $





000
SAUS42 KCHS 231457
MTRNBC
METAR KNBC 231456Z 02008KT 10SM CLR 17/07 A3011 RMK AO2 SLP197
T01670072 50007 $





000
SAUS42 KCHS 231457
MTRNBC
METAR KNBC 231456Z 02008KT 10SM CLR 17/07 A3011 RMK AO2 SLP197
T01670072 50007 $





000
SAUS42 KCHS 231357
MTRNBC
METAR KNBC 231356Z 36007KT 10SM CLR 14/07 A3011 RMK AO2 SLP198
T01440072 $





000
SAUS42 KCHS 231332
MTRNBC
SPECI KNBC 231331Z 35006KT 10SM CLR 13/07 A3011 RMK AO2 FIRST
T01330072 $





000
SAUS42 KCHS 231257
MTRNBC
METAR KNBC 231256Z AUTO 36007KT 10SM CLR 12/07 A3010 RMK AO2 SLP194
T01170067 $





000
SAUS42 KCHS 231157
MTRNBC
METAR KNBC 231156Z AUTO 34004KT 10SM CLR 09/07 A3009 RMK AO2 SLP190
T00940067 10122 20083 51009 $





000
SAUS42 KCHS 231057
MTRNBC
METAR KNBC 231056Z AUTO 35005KT 10SM CLR 09/07 A3009 RMK AO2 SLP190
T00940067 $





000
SAUS42 KCHS 230957
MTRNBC
METAR KNBC 230956Z AUTO 00000KT 10SM CLR 09/07 A3007 RMK AO2 SLP184
T00890067 $





000
SAUS42 KCHS 230957
MTRNBC
METAR KNBC 230956Z AUTO 00000KT 10SM CLR 09/07 A3007 RMK AO2 SLP184
T00890067 $





000
SAUS42 KCHS 230857
MTRNBC
METAR KNBC 230856Z AUTO 31003KT 10SM CLR 08/07 A3006 RMK AO2 SLP181
T00830067 55002 $





000
SAUS42 KCHS 230757
MTRNBC
METAR KNBC 230756Z AUTO 34004KT 10SM CLR 10/08 A3005 RMK AO2 SLP177
T01000078 $





000
SAUS42 KCHS 230657
MTRNBC
METAR KNBC 230656Z AUTO 36006KT 10SM CLR 11/07 A3007 RMK AO2 SLP183
T01110072 $





000
SAUS42 KCHS 230557
MTRNBC
METAR KNBC 230556Z AUTO 01007KT 10SM CLR 12/07 A3007 RMK AO2 SLP183
T01220072 10150 20106 55002 $





000
SAUS42 KCHS 230457
MTRNBC
METAR KNBC 230456Z 36009KT 10SM CLR 13/08 A3006 RMK AO2 SLP180
T01330083 402170106 $





000
SAUS42 KCHS 230457
MTRNBC
METAR KNBC 230456Z 36009KT 10SM CLR 13/08 A3006 RMK AO2 SLP180
T01330083 402170106 $





000
SAUS42 KCHS 230357
MTRNBC
METAR KNBC 230356Z 00000KT 10SM CLR 11/08 A3007 RMK AO2 SLP183
T01060078 $





000
SAUS42 KCHS 230357
MTRNBC
METAR KNBC 230356Z 00000KT 10SM CLR 11/08 A3007 RMK AO2 SLP183
T01060078 $





000
SAUS42 KCHS 230257
MTRNBC
METAR KNBC 230256Z 27003KT 10SM CLR 11/08 A3008 RMK AO2 SLP185
T01110078 51009 $





000
SAUS42 KCHS 230157
MTRNBC
METAR KNBC 230156Z 33003KT 10SM CLR 12/09 A3007 RMK AO2 SLP182
T01220089 $





000
SAUS42 KCHS 230157
MTRNBC
METAR KNBC 230156Z 33003KT 10SM CLR 12/09 A3007 RMK AO2 SLP182
T01220089 $





000
SAUS42 KCHS 230057
MTRNBC
METAR KNBC 230056Z 00000KT 10SM CLR 13/10 A3006 RMK AO2 SLP179
T01330100 $





000
SAUS42 KCHS 230057
MTRNBC
METAR KNBC 230056Z 00000KT 10SM CLR 13/10 A3006 RMK AO2 SLP179
T01330100 $





000
SAUS42 KCHS 222357
MTRNBC
METAR KNBC 222356Z 00000KT 10SM CLR 13/09 A3005 RMK AO2 SLP175
T01330094 10217 20133 53015 $





000
SAUS42 KCHS 222357
MTRNBC
METAR KNBC 222356Z 00000KT 10SM CLR 13/09 A3005 RMK AO2 SLP175
T01330094 10217 20133 53015 $





000
SAUS42 KCHS 222257
MTRNBC
METAR KNBC 222256Z 00000KT 10SM CLR 17/08 A3003 RMK AO2 SLP170
T01670078 $





000
SAUS42 KCHS 222257
MTRNBC
METAR KNBC 222256Z 00000KT 10SM CLR 17/08 A3003 RMK AO2 SLP170
T01670078 $





000
SAUS42 KCHS 222157
MTRNBC
METAR KNBC 222156Z 33005KT 10SM CLR 21/06 A3002 RMK AO2 SLP164
T02060061 $





000
SAUS42 KCHS 222057
MTRNBC
METAR KNBC 222056Z 01010KT 10SM CLR 21/06 A3000 RMK AO2 SLP160
T02110061 56006 $





000
SAUS42 KCHS 221957
MTRNBC
METAR KNBC 221956Z 30009KT 10SM CLR 21/06 A3001 RMK AO2 SLP161
T02110056 $





000
SAUS42 KCHS 221857
MTRNBC
METAR KNBC 221856Z 32010KT 10SM CLR 21/06 A3001 RMK AO2 SLP161
T02110061 $





000
SAUS42 KCHS 221757
MTRNBC
METAR KNBC 221756Z 31009KT 10SM CLR 20/06 A3002 RMK AO2 SLP167
T02000061 10206 20122 58013 $





000
SAUS42 KCHS 221757
MTRNBC
METAR KNBC 221756Z 31009KT 10SM CLR 20/06 A3002 RMK AO2 SLP167
T02000061 10206 20122 58013 $





000
SAUS42 KCHS 221657
MTRNBC
METAR KNBC 221656Z 03007KT 10SM CLR 19/07 A3005 RMK AO2 SLP176
T01940072 $





000
SAUS42 KCHS 221657
MTRNBC
METAR KNBC 221656Z 03007KT 10SM CLR 19/07 A3005 RMK AO2 SLP176
T01940072 $





000
SAUS42 KCHS 221557
MTRNBC
METAR KNBC 221556Z 02010KT 10SM CLR 18/07 A3006 RMK AO2 SLP181
T01830067 $





000
SAUS42 KCHS 221557
MTRNBC
METAR KNBC 221556Z 02010KT 10SM CLR 18/07 A3006 RMK AO2 SLP181
T01830067 $





000
SAUS42 KCHS 221457
MTRNBC
METAR KNBC 221456Z 02012KT 10SM CLR 17/06 A3006 RMK AO2 SLP180
T01720061 50011 $





000
SAUS42 KCHS 221357
MTRNBC
METAR KNBC 221356Z 02013G20KT 10SM CLR 16/06 A3006 RMK AO2 SLP181
T01560061 $





000
SAUS42 KCHS 221328
MTRNBC
SPECI KNBC 221327Z 02015G20KT 10SM CLR 15/06 A3006 RMK AO2 FIRST
T01500061 $





000
SAUS42 KCHS 221257
MTRNBC
METAR KNBC 221256Z AUTO 36011KT 10SM CLR 14/07 A3005 RMK AO2 SLP177
T01440067 $





000
SAUS42 KCHS 221157
MTRNBC
METAR KNBC 221156Z AUTO 36008KT 10SM CLR 12/07 A3003 RMK AO2 SLP169
7//// T01220072 10172 20122 51022 $





000
SAUS42 KCHS 221057
MTRNBC
METAR KNBC 221056Z AUTO 36007KT 10SM CLR 12/08 A3001 RMK AO2 SLP163
T01220078 $





000
SAUS42 KCHS 221057
MTRNBC
METAR KNBC 221056Z AUTO 36007KT 10SM CLR 12/08 A3001 RMK AO2 SLP163
T01220078 $





000
SAUS42 KCHS 220957
MTRNBC
METAR KNBC 220956Z AUTO 34007KT 10SM CLR 13/09 A2999 RMK AO2 SLP154
T01280089 $





000
SAUS42 KCHS 220957
MTRNBC
METAR KNBC 220956Z AUTO 34007KT 10SM CLR 13/09 A2999 RMK AO2 SLP154
T01280089 $





000
SAUS42 KCHS 220857
MTRNBC
METAR KNBC 220856Z AUTO 34006KT 10SM CLR 14/10 A2996 RMK AO2 SLP146
T01390100 53007 $





000
SAUS42 KCHS 220757
MTRNBC
METAR KNBC 220756Z AUTO 36004KT 10SM CLR 14/10 A2995 RMK AO2 SLP141
T01390100 $





000
SAUS42 KCHS 220657
MTRNBC
METAR KNBC 220656Z AUTO 33006KT 10SM CLR 16/11 A2995 RMK AO2 SLP142
T01610106 $





000
SAUS42 KCHS 220557
MTRNBC
METAR KNBC 220556Z AUTO 32007KT 10SM CLR 17/11 A2994 RMK AO2 SLP139
LAST T01720111 10194 20156 53000 $





000
SAUS42 KCHS 220557
MTRNBC
METAR KNBC 220556Z AUTO 32007KT 10SM CLR 17/11 A2994 RMK AO2 SLP139
LAST T01720111 10194 20156 53000 $





000
SAUS42 KCHS 220457
MTRNBC
METAR KNBC 220456Z 29006KT 10SM CLR 17/12 A2994 RMK AO2 SLP138
T01720117 402610156 $





000
SAUS42 KCHS 220457
MTRNBC
METAR KNBC 220456Z 29006KT 10SM CLR 17/12 A2994 RMK AO2 SLP138
T01720117 402610156 $





000
SAUS42 KCHS 220357
MTRNBC
METAR KNBC 220356Z 28005KT 10SM CLR 17/13 A2994 RMK AO2 SLP140
T01720128 $





000
SAUS42 KCHS 220357
MTRNBC
METAR KNBC 220356Z 28005KT 10SM CLR 17/13 A2994 RMK AO2 SLP140
T01720128 $





000
SAUS42 KCHS 220257
MTRNBC
METAR KNBC 220256Z 24005KT 10SM CLR 16/13 A2994 RMK AO2 SLP139
T01610133 51012 $





000
SAUS42 KCHS 220157
MTRNBC
METAR KNBC 220156Z 26006KT 10SM CLR 18/14 A2993 RMK AO2 SLP137
T01780139 $





000
SAUS42 KCHS 220157
MTRNBC
METAR KNBC 220156Z 26006KT 10SM CLR 18/14 A2993 RMK AO2 SLP137
T01780139 $





000
SAUS42 KCHS 220057
MTRNBC
METAR KNBC 220056Z 22004KT 10SM CLR 19/16 A2992 RMK AO2 SLP130
T01890156 $





000
SAUS42 KCHS 212357
MTRNBC
METAR KNBC 212356Z 24004KT 10SM CLR 19/14 A2991 RMK AO2 SLP127
T01890144 10261 20189 53009 $





000
SAUS42 KCHS 212257
MTRNBC
METAR KNBC 212256Z AUTO 23004KT 10SM CLR 21/14 A2989 RMK AO2 SLP121
T02110144 $





000
SAUS42 KCHS 212257
MTRNBC
METAR KNBC 212256Z AUTO 23004KT 10SM CLR 21/14 A2989 RMK AO2 SLP121
T02110144 $





000
SAUS42 KCHS 212157
MTRNBC
METAR KNBC 212156Z 22006KT 10SM CLR 24/13 A2988 RMK AO2 SLP119
T02440128 $





000
SAUS42 KCHS 212157
MTRNBC
METAR KNBC 212156Z 22006KT 10SM CLR 24/13 A2988 RMK AO2 SLP119
T02440128 $





000
SAUS42 KCHS 212057
MTRNBC
METAR KNBC 212056Z 26008KT 10SM CLR 26/12 A2988 RMK AO2 SLP118
T02610122 56013 $





000
SAUS42 KCHS 211957
MTRNBC
METAR KNBC 211956Z 27005KT 10SM CLR 26/12 A2988 RMK AO2 SLP118
T02610122 $





000
SAUS42 KCHS 211957
MTRNBC
METAR KNBC 211956Z 27005KT 10SM CLR 26/12 A2988 RMK AO2 SLP118
T02610122 $





000
SAUS42 KCHS 211857
MTRNBC
METAR KNBC 211856Z 26008KT 10SM CLR 26/12 A2989 RMK AO2 SLP122
T02610117 $





000
SAUS42 KCHS 211757
MTRNBC
METAR KNBC 211756Z 26010KT 10SM CLR 26/12 A2992 RMK AO2 SLP131 6////
T02560122 10256 20161 58022 $





000
SAUS42 KCHS 211657
MTRNBC
METAR KNBC 211656Z VRB06KT 10SM CLR 25/13 A2995 RMK AO2 SLP143
T02500128 $





000
SAUS42 KCHS 211657
MTRNBC
METAR KNBC 211656Z VRB06KT 10SM CLR 25/13 A2995 RMK AO2 SLP143
T02500128 $





000
SAUS42 KCHS 211557
MTRNBC
METAR KNBC 211556Z 31008KT 10SM CLR 24/13 A2997 RMK AO2 SLP150
T02390133 $





000
SAUS42 KCHS 211557
MTRNBC
METAR KNBC 211556Z 31008KT 10SM CLR 24/13 A2997 RMK AO2 SLP150
T02390133 $





000
SAUS42 KCHS 211457
MTRNBC
METAR KNBC 211456Z 28006KT 10SM CLR 23/13 A2998 RMK AO2 SLP153 6////
T02280133 50000 $





000
SAUS42 KCHS 211411
MTRNBC
METAR KNBC 211356Z COR 31004KT 10SM CLR 21/14 A2999 RMK AO2 SLP156
T02110139 $





000
SAUS42 KCHS 211357
MTRNBC
METAR KNBC 211356Z 31004KT 10SM CLR 21/14 A2999 RMK AO2 SLP156 FIRST
T02110139 $





000
SAUS42 KCHS 211323
MTRNBC
SPECI KNBC 211321Z 33004KT 10SM CLR 20/16 A2999 RMK AO2 FIRST
T02000156 $





000
SAUS42 KCHS 211257
MTRNBC
METAR KNBC 211256Z AUTO 32003KT 10SM FEW002 17/16 A2998 RMK AO2
SLP153 T01720156 PNO $





000
SAUS42 KCHS 211157
MTRNBC
METAR KNBC 211156Z AUTO 00000KT 6SM BR CLR 16/15 A2997 RMK AO2
SLP147 6//// 7//// T01610150 10194 20156 50004 PNO $





000
SAUS42 KCHS 211157
MTRNBC
METAR KNBC 211156Z AUTO 00000KT 6SM BR CLR 16/15 A2997 RMK AO2
SLP147 6//// 7//// T01610150 10194 20156 50004 PNO $





000
SAUS42 KCHS 211149
MTRNBC
SPECI KNBC 211148Z AUTO 00000KT 3SM BR CLR 16/15 A2996 RMK AO2
T01560150 PNO $





000
SAUS42 KCHS 211149
MTRNBC
SPECI KNBC 211148Z AUTO 00000KT 3SM BR CLR 16/15 A2996 RMK AO2
T01560150 PNO $





000
SAUS42 KCHS 211146
MTRNBC
SPECI KNBC 211144Z AUTO 00000KT 1 3/4SM BR CLR 16/15 A2997 RMK AO2
T01560150 PNO $





000
SAUS42 KCHS 211146
MTRNBC
SPECI KNBC 211144Z AUTO 00000KT 1 3/4SM BR CLR 16/15 A2997 RMK AO2
T01560150 PNO $





000
SAUS42 KCHS 211133
MTRNBC
SPECI KNBC 211132Z AUTO 00000KT 1SM BR CLR 16/15 A2997 RMK AO2
T01560150 PNO $





000
SAUS42 KCHS 211133
MTRNBC
SPECI KNBC 211132Z AUTO 00000KT 1SM BR CLR 16/15 A2997 RMK AO2
T01560150 PNO $





000
SAUS42 KCHS 211123
MTRNBC
SPECI KNBC 211122Z AUTO 00000KT 1 3/4SM BR FEW002 16/16 A2997 RMK
AO2 T01610156 PNO $





000
SAUS42 KCHS 211123
MTRNBC
SPECI KNBC 211122Z AUTO 00000KT 1 3/4SM BR FEW002 16/16 A2997 RMK
AO2 T01610156 PNO $





000
SAUS42 KCHS 211117
MTRNBC
SPECI KNBC 211116Z AUTO 25003KT 1SM BR VV002 16/16 A2997 RMK AO2
T01610156 PNO $





000
SAUS42 KCHS 211117
MTRNBC
SPECI KNBC 211116Z AUTO 25003KT 1SM BR VV002 16/16 A2997 RMK AO2
T01610156 PNO $





000
SAUS42 KCHS 211110
MTRNBC
SPECI KNBC 211109Z AUTO 25003KT 1/2SM FG VV002 16/15 A2997 RMK AO2
T01610150 PNO $





000
SAUS42 KCHS 211110
MTRNBC
SPECI KNBC 211109Z AUTO 25003KT 1/2SM FG VV002 16/15 A2997 RMK AO2
T01610150 PNO $





000
SAUS42 KCHS 211057
MTRNBC
METAR KNBC 211056Z AUTO 00000KT 3/4SM BR VV002 16/16 A2997 RMK AO2
SLP148 T01610156 PNO $





000
SAUS42 KCHS 211057
MTRNBC
METAR KNBC 211056Z AUTO 00000KT 3/4SM BR VV002 16/16 A2997 RMK AO2
SLP148 T01610156 PNO $





000
SAUS42 KCHS 211050
MTRNBC
SPECI KNBC 211049Z AUTO 00000KT 1SM BR VV002 16/16 A2996 RMK AO2
T01610156 PNO $





000
SAUS42 KCHS 211050
MTRNBC
SPECI KNBC 211049Z AUTO 00000KT 1SM BR VV002 16/16 A2996 RMK AO2
T01610156 PNO $





000
SAUS42 KCHS 211047
MTRNBC
SPECI KNBC 211046Z AUTO 00000KT 1 3/4SM BR FEW002 17/16 A2996 RMK
AO2 T01670156 PNO $





000
SAUS42 KCHS 211047
MTRNBC
SPECI KNBC 211046Z AUTO 00000KT 1 3/4SM BR FEW002 17/16 A2996 RMK
AO2 T01670156 PNO $





000
SAUS42 KCHS 211034
MTRNBC
SPECI KNBC 211033Z AUTO 00000KT 7SM CLR 17/16 A2996 RMK AO2
T01670156 PNO $





000
SAUS42 KCHS 211034
MTRNBC
SPECI KNBC 211033Z AUTO 00000KT 7SM CLR 17/16 A2996 RMK AO2
T01670156 PNO $





000
SAUS42 KCHS 211025
MTRNBC
SPECI KNBC 211024Z AUTO 00000KT 2SM BR CLR 17/16 A2996 RMK AO2
T01670156 PNO $





000
SAUS42 KCHS 211025
MTRNBC
SPECI KNBC 211024Z AUTO 00000KT 2SM BR CLR 17/16 A2996 RMK AO2
T01670156 PNO $





000
SAUS42 KCHS 210957
MTRNBC
METAR KNBC 210956Z AUTO 33003KT 10SM FEW028 17/17 A2996 RMK AO2
SLP144 T01720167 PNO $





000
SAUS42 KCHS 210957
MTRNBC
METAR KNBC 210956Z AUTO 33003KT 10SM FEW028 17/17 A2996 RMK AO2
SLP144 T01720167 PNO $





000
SAUS42 KCHS 210857
MTRNBC
METAR KNBC 210856Z AUTO 00000KT 9SM BKN070 18/17 A2995 RMK AO2
SLP143 6//// T01780172 55003 PNO $





000
SAUS42 KCHS 210757
MTRNBC
METAR KNBC 210756Z AUTO 00000KT 10SM SCT031 BKN075 19/18 A2995 RMK
AO2 SLP143 T01890178 PNO $





000
SAUS42 KCHS 210657
MTRNBC
METAR KNBC 210656Z AUTO 34003KT 10SM SCT032 BKN046 OVC075 19/18
A2996 RMK AO2 RAB26E47 SLP145 T01890183 PNO $





000
SAUS42 KCHS 210557
MTRNBC
METAR KNBC 210556Z AUTO 00000KT 10SM FEW035 BKN043 BKN065 19/18
A2996 RMK AO2 RAE29 SLP146 6//// T01940183 10200 20183 58014 PNO $





000
SAUS42 KCHS 210534
MTRNBC
SPECI KNBC 210533Z 07003KT 6SM BR FEW026 BKN060 OVC100 19/18 A2997
RMK AO2 RAE29 T01890178 PNO $





000
SAUS42 KCHS 210526
MTRNBC
SPECI KNBC 210525Z 08004KT 6SM -RA BR BKN028 BKN049 OVC100 19/18
A2997 RMK AO2 T01890178 PNO $





000
SAUS42 KCHS 210512
MTRNBC
SPECI KNBC 210511Z 00000KT 2SM +RA BR BKN020 BKN039 OVC065 19/18
A2998 RMK AO2 T01940183 PNO $





000
SAUS42 KCHS 210457
MTRNBC
METAR KNBC 210456Z 00000KT 9SM RA SCT041 SCT050 BKN065 19/18 A2998
RMK AO2 RAB50 SLP153 P0000 T01940178 402670106 $





000
SAUS42 KCHS 210357
MTRNBC
METAR KNBC 210356Z 00000KT 10SM BKN041 BKN048 BKN080 20/18 A2999 RMK
AO2 SLP157 T02000183 $





000
SAUS42 KCHS 210357
MTRNBC
METAR KNBC 210356Z 00000KT 10SM BKN041 BKN048 BKN080 20/18 A2999 RMK
AO2 SLP157 T02000183 $





000
SAUS42 KCHS 210257
MTRNBC
METAR KNBC 210256Z 00000KT 10SM FEW041 SCT060 BKN080 19/17 A3000 RMK
AO2 SLP160 T01890172 50001 $





000
SAUS42 KCHS 210157
MTRNBC
METAR KNBC 210156Z 00000KT 10SM SCT075 19/17 A3001 RMK AO2 SLP161
T01890167 $





000
SAUS42 KCHS 210157
MTRNBC
METAR KNBC 210156Z 00000KT 10SM SCT075 19/17 A3001 RMK AO2 SLP161
T01890167 $





000
SAUS42 KCHS 210057
MTRNBC
METAR KNBC 210056Z 00000KT 10SM SCT150 SCT250 19/17 A3000 RMK AO2
SLP159 T01890167 $





000
SAUS42 KCHS 202357
MTRNBC
METAR KNBC 202356Z 00000KT 10SM CLR 20/16 A3000 RMK AO2 SLP159
T02000161 10267 20194 53002 $





000
SAUS42 KCHS 202257
MTRNBC
METAR KNBC 202256Z 00000KT 10SM FEW035 SCT100 BKN180 BKN250 22/17
A2999 RMK AO2 SLP155 T02220167 $





000
SAUS42 KCHS 202257
MTRNBC
METAR KNBC 202256Z 00000KT 10SM FEW035 SCT100 BKN180 BKN250 22/17
A2999 RMK AO2 SLP155 T02220167 $





000
SAUS42 KCHS 202157
MTRNBC
METAR KNBC 202156Z 18004KT 10SM SCT035 SCT090 BKN150 BKN250 23/16
A2999 RMK AO2 SLP155 T02330161 $





000
SAUS42 KCHS 202157
MTRNBC
METAR KNBC 202156Z 18004KT 10SM SCT035 SCT090 BKN150 BKN250 23/16
A2999 RMK AO2 SLP155 T02330161 $





000
SAUS42 KCHS 202057
MTRNBC
METAR KNBC 202056Z 16005KT 10SM SCT045 BKN250 25/16 A2999 RMK AO2
SLP157 T02500156 56018 $





000
SAUS42 KCHS 201957
MTRNBC
METAR KNBC 201956Z VRB04KT 10SM SCT050 26/16 A3001 RMK AO2 SLP162
T02560156 $





000
SAUS42 KCHS 201857
MTRNBC
METAR KNBC 201856Z VRB03KT 10SM SCT045 SCT250 26/14 A3002 RMK AO2
SLP166 T02560139 $





    US Dept of Commerce
    National Oceanic and Atmospheric Administration
    National Weather Service
    1325 East West Highway
    Silver Spring, MD 20910
    Page Author: NWS Internet Services Team
Disclaimer
Information Quality
Credits
Glossary
Privacy Policy
Freedom of Information Act (FOIA)
About Us
Career Opportunities